TimeCST,TemperatureF,Dew PointF,Humidity,Sea Level PressureIn,VisibilityMPH,Wind Direction,Wind SpeedMPH,Gust SpeedMPH,PrecipitationIn,Events,Conditions,WindDirDegrees,DateUTC
12:15 AM,39.2,28.4,65,29.89,10.0,SSW,17.3,-,N/A,,Clear,210,2013-01-09 06:15:00
12:35 AM,39.2,30.2,70,29.88,10.0,SW,18.4,26.5,N/A,,Clear,220,2013-01-09 06:35:00
1:15 AM,39.2,30.2,70,29.87,10.0,WSW,16.1,23.0,N/A,,Clear,240,2013-01-09 07:15:00
1:35 AM,39.2,30.2,70,29.87,10.0,SW,18.4,24.2,N/A,,Clear,230,2013-01-09 07:35:00
1:55 AM,39.2,30.2,70,29.88,10.0,WSW,17.3,25.3,N/A,,Scattered Clouds,240,2013-01-09 07:55:00
2:15 AM,39.2,30.2,70,29.89,10.0,WSW,16.1,29.9,N/A,,Scattered Clouds,240,2013-01-09 08:15:00
2:35 AM,37.4,30.2,75,29.89,10.0,WSW,18.4,27.6,N/A,,Clear,240,2013-01-09 08:35:00
2:55 AM,37.4,30.2,75,29.89,10.0,WSW,17.3,27.6,N/A,,Clear,240,2013-01-09 08:55:00
3:15 AM,37.4,30.2,75,29.89,10.0,WSW,16.1,26.5,N/A,,Clear,250,2013-01-09 09:15:00
3:55 AM,35.6,30.2,81,29.91,10.0,WSW,21.9,29.9,N/A,,Clear,250,2013-01-09 09:55:00
4:15 AM,35.6,30.2,81,29.93,10.0,West,18.4,27.6,N/A,,Clear,260,2013-01-09 10:15:00
4:35 AM,35.6,30.2,81,29.94,10.0,West,16.1,24.2,N/A,,Scattered Clouds,260,2013-01-09 10:35:00
4:55 AM,33.8,30.2,87,29.96,10.0,West,17.3,26.5,N/A,,Scattered Clouds,260,2013-01-09 10:55:00
5:15 AM,33.8,30.2,87,29.98,10.0,West,16.1,23.0,N/A,,Clear,260,2013-01-09 11:15:00
5:35 AM,33.8,28.4,81,29.98,10.0,WSW,15.0,26.5,N/A,,Clear,250,2013-01-09 11:35:00
5:55 AM,32.0,28.4,87,30.00,10.0,WSW,16.1,24.2,N/A,,Clear,250,2013-01-09 11:55:00
6:15 AM,32.0,28.4,87,30.00,10.0,WSW,18.4,25.3,N/A,,Clear,250,2013-01-09 12:15:00
6:35 AM,32.0,28.4,87,30.02,10.0,West,17.3,24.2,N/A,,Clear,260,2013-01-09 12:35:00
7:15 AM,32.0,28.4,87,30.05,10.0,WSW,12.7,24.2,N/A,,Clear,250,2013-01-09 13:15:00
7:35 AM,32.0,26.6,80,30.05,10.0,WSW,12.7,-,N/A,,Clear,250,2013-01-09 13:35:00
8:15 AM,33.8,26.6,75,30.05,10.0,WSW,12.7,20.7,N/A,,Clear,250,2013-01-09 14:15:00
8:35 AM,33.8,26.6,75,30.06,10.0,WSW,13.8,19.6,N/A,,Clear,250,2013-01-09 14:35:00
8:55 AM,35.6,26.6,70,30.06,10.0,WSW,17.3,27.6,N/A,,Clear,250,2013-01-09 14:55:00
9:15 AM,35.6,26.6,70,30.07,10.0,WSW,19.6,27.6,N/A,,Clear,240,2013-01-09 15:15:00
9:35 AM,35.6,26.6,70,30.08,10.0,WSW,16.1,28.8,N/A,,Clear,240,2013-01-09 15:35:00
9:55 AM,35.6,26.6,70,30.09,10.0,WSW,16.1,24.2,N/A,,Clear,250,2013-01-09 15:55:00
10:15 AM,35.6,26.6,70,30.09,10.0,WSW,17.3,28.8,N/A,,Clear,240,2013-01-09 16:15:00
10:35 AM,37.4,26.6,65,30.11,10.0,WSW,17.3,33.4,N/A,,Clear,250,2013-01-09 16:35:00
10:55 AM,37.4,24.8,60,30.11,10.0,West,20.7,34.5,N/A,,Clear,260,2013-01-09 16:55:00
11:15 AM,37.4,24.8,60,30.10,10.0,West,18.4,28.8,N/A,,Clear,260,2013-01-09 17:15:00
11:55 AM,37.4,24.8,60,30.12,10.0,West,19.6,33.4,N/A,,Clear,260,2013-01-09 17:55:00
12:15 PM,37.4,24.8,60,30.12,10.0,WSW,19.6,28.8,N/A,,Clear,250,2013-01-09 18:15:00
12:35 PM,37.4,24.8,60,30.13,10.0,WSW,20.7,28.8,N/A,,Clear,250,2013-01-09 18:35:00
12:55 PM,37.4,24.8,60,30.15,10.0,WSW,20.7,28.8,N/A,,Clear,250,2013-01-09 18:55:00
1:35 PM,39.2,23.0,52,30.17,10.0,WSW,21.9,32.2,N/A,,Clear,250,2013-01-09 19:35:00
1:55 PM,39.2,23.0,52,30.20,10.0,WSW,21.9,31.1,N/A,,Clear,250,2013-01-09 19:55:00
2:15 PM,39.2,23.0,52,30.21,10.0,WSW,21.9,32.2,N/A,,Clear,250,2013-01-09 20:15:00
2:35 PM,37.4,26.6,65,30.22,10.0,West,18.4,33.4,N/A,,Clear,260,2013-01-09 20:35:00
2:55 PM,37.4,26.6,65,30.23,10.0,WSW,18.4,26.5,N/A,,Clear,250,2013-01-09 20:55:00
3:15 PM,37.4,24.8,60,30.25,10.0,WSW,20.7,28.8,N/A,,Clear,250,2013-01-09 21:15:00
3:35 PM,37.4,26.6,65,30.27,10.0,WSW,18.4,31.1,N/A,,Clear,250,2013-01-09 21:35:00
3:55 PM,37.4,26.6,65,30.29,10.0,WSW,16.1,19.6,N/A,,Clear,250,2013-01-09 21:55:00
4:15 PM,35.6,24.8,65,30.29,10.0,West,12.7,-,N/A,,Clear,260,2013-01-09 22:15:00
4:35 PM,35.6,23.0,60,30.30,10.0,West,11.5,19.6,N/A,,Clear,270,2013-01-09 22:35:00
4:55 PM,35.6,23.0,60,30.32,10.0,West,11.5,-,N/A,,Clear,260,2013-01-09 22:55:00
5:15 PM,33.8,24.8,70,30.34,10.0,West,9.2,-,N/A,,Clear,270,2013-01-09 23:15:00
5:55 PM,33.8,23.0,65,30.36,10.0,West,9.2,-,N/A,,Clear,270,2013-01-09 23:55:00
6:15 PM,33.8,23.0,65,30.37,10.0,West,9.2,-,N/A,,Clear,270,2013-01-10 00:15:00
6:35 PM,33.8,23.0,65,30.37,10.0,West,8.1,-,N/A,,Clear,280,2013-01-10 00:35:00
6:55 PM,33.8,23.0,65,30.39,10.0,WNW,8.1,-,N/A,,Clear,290,2013-01-10 00:55:00
7:15 PM,33.8,23.0,65,30.40,10.0,West,6.9,-,N/A,,Clear,270,2013-01-10 01:15:00
7:55 PM,32.0,23.0,69,30.42,10.0,WSW,4.6,-,N/A,,Clear,240,2013-01-10 01:55:00
8:15 PM,32.0,21.2,64,30.42,10.0,SW,4.6,-,N/A,,Clear,230,2013-01-10 02:15:00
8:35 PM,32.0,21.2,64,30.42,10.0,West,5.8,-,N/A,,Clear,270,2013-01-10 02:35:00
9:15 PM,32.0,21.2,64,30.42,10.0,West,8.1,-,N/A,,Clear,270,2013-01-10 03:15:00
9:35 PM,32.0,21.2,64,30.41,10.0,West,6.9,-,N/A,,Clear,280,2013-01-10 03:35:00
9:55 PM,30.2,21.2,69,30.42,10.0,West,6.9,-,N/A,,Clear,270,2013-01-10 03:55:00
10:15 PM,28.4,21.2,74,30.40,10.0,NW,5.8,-,N/A,,Clear,310,2013-01-10 04:15:00
10:35 PM,30.2,21.2,69,30.39,10.0,NW,6.9,-,N/A,,Clear,320,2013-01-10 04:35:00
10:55 PM,30.2,21.2,69,30.38,10.0,NW,8.1,-,N/A,,Clear,320,2013-01-10 04:55:00
11:15 PM,30.2,21.2,69,30.37,10.0,North,5.8,-,N/A,,Clear,360,2013-01-10 05:15:00
11:35 PM,30.2,21.2,69,30.38,10.0,Calm,Calm,-,N/A,,Clear,0,2013-01-10 05:35:00
11:55 PM,28.4,21.2,74,30.40,10.0,SSW,6.9,-,N/A,,Clear,200,2013-01-10 05:55:00